Regional Weather Roundup
Issued by NWS

Home | Current Version | Previous Version | Graphics & Text | Print | Product List | Glossary On
Versions: 1 2 3 4 5 6 7 8 9 10 11 12 13 14 15 16 17 18 19 20 21 22 23 24 25 26 27 28
000
ASUS45 KCYS 162010
RWRWY

WYOMING REGIONAL WEATHER ROUNDUP
NATIONAL WEATHER SERVICE CHEYENNE WY
100 PM MST THU NOV 16 2017

NOTE:  "FAIR" INDICATES FEW OR NO CLOUDS BELOW 12,000 FEET
WITH NO SIGNIFICANT WEATHER AND/OR OBSTRUCTIONS TO VISIBILITY.

WYZ001-162100-
YELLOWSTONE NATIONAL PARK

CITY           SKY/WX    TMP DP  RH WIND       PRES   REMARKS
LK YELLOWSTONE   N/A     34  33  96 W9        29.66F WCI  27
W YELLOWSTONE  NOT AVBL

$$
WYZ002>013-054>058-071-098>099-162100-
NORTHERN WYOMING

CITY           SKY/WX    TMP DP  RH WIND       PRES   REMARKS
JACKSON        LGT RAIN  37  36  93 S18       29.72F WCI  27
CODY           FAIR      55  35  47 SW16G24   29.55F
GREYBULL       FAIR      60  33  36 SE16      29.50F
WORLAND        FAIR      63  33  32 S25G33    29.54F
SHERIDAN       FAIR      64  31  28 SW30G40   29.44F
BUFFALO        FAIR      65  24  21 SW30G55   29.48F
GILLETTE       FAIR      65  27  23 SW25G31   29.52F
HULETT         FAIR      61  28  29 S15G23    29.53F
NEWCASTLE      FAIR      61  21  21 S9        29.62F

$$
WYZ014>020-022>026-101>103-162100-
CENTRAL WYOMING

CITY           SKY/WX    TMP DP  RH WIND       PRES   REMARKS
BIG PINEY      PTSUNNY   48  32  53 W17G25    29.79F
PINEDALE       CLOUDY    45  32  61 SW10G17   29.80F
DUBOIS         CLOUDY    39  30  70 W22G31    29.66F WCI  29
LANDER         FAIR      51  32  48 SW33G48   29.61F
RIVERTON       FAIR      55  29  36 SW22G36   29.66F
CASPER         FAIR      60  19  20 SW31G40   29.66F
DOUGLAS        FAIR      67  23  19 W31G40    29.63F

$$
WYZ021-027>030-104>119-162100-
SOUTHERN WYOMING

CITY           SKY/WX    TMP DP  RH WIND       PRES   REMARKS
EVANSTON       LGT RAIN  44  36  73 SW21G35   29.84F
KEMMERER       CLOUDY    46  28  49 SW22G29   29.83F
FORT BRIDGER   LGT RAIN  50  32  49 SW30G45   29.87F
ROCK SPRINGS   LGT RAIN  46  30  53 SW16      29.82F
DIXON          FAIR      58  17  20 SW23G36   29.91F
RAWLINS        LGT RAIN  56  16  20 SW41G58   29.78F
SARATOGA       FAIR      57  19  23 SW33G45   29.83S
LARAMIE        FAIR      61  20  20 W29G37    29.80F
CHEYENNE       FAIR      64  22  20 S10G26    29.77F
TORRINGTON     FAIR      72  24  16 SW18G32   29.64F
PINE BLUFFS    FAIR      63  23  22 S14G22    29.75F

$$




USA.gov is the U.S. government's official web portal to all federal, state and local government web resources and services.